Погода в Мальцево

Россия / Курганская область     56°14′24″N   63°26′00″E
темп.,
°C
ветер,
м/с
пор.,
м/с
влажн.,
%
обл.,
%
осадки,
мм/ч
давл.,
гПа
погр.,
м
8 августа, пн
пн823:00+19всв228635 1.1 101820
02:00+17св228685 0.0 101816
05:00+16св339082 0.0 101829
08:00+21ссв237623 0.0 1019215
11:00+26св234881 0.0 10181279
14:00+27св3543100 0.0 10182105
17:00+27св4545100 0.0 10171930
20:00+22всв336644 0.0 101838
9 августа, вт
вт923:00+19вюв227677 0.0 101812
02:00+18зсз117910 0.0 101811
05:00+17с22819 0.0 101823
08:00+21с35675 0.0 1019232
11:00+26ссв45505 0.0 10181480
14:00+29ссв353955 0.0 10172629
17:00+28св354060 0.0 10162001
20:00+24св115816 0.1 101719
10 августа, ср
ср1023:00+21ююв22670 0.1 101721
02:00+18сз227820 0.0 101717
05:00+17с338478 0.1 101746
08:00+21ссз347122 0.0 1018215
11:00+25ссз335755 0.0 1017683
14:00+28ссз344623 0.0 10171558
17:00+28ссз334680 0.0 10161358
20:00+23ссв236660 0.0 101723
11 августа, чт
чт1123:00+20ююв117591 0.0 101614
02:00+19в1183100 0.3 101611
05:00+18ююз128816 0.3 101611
08:00+22ююз22744 0.0 1016235
11:00+26ююз33554 0.0 1015790
14:00+28юз45465 0.0 10141757
17:00+29юз4544100 0.0 10122090
20:00+21зсз3579100 0.9 101299
12 августа, пт
пт1223:00+17ююз3395100 2.5 101375
02:00+17з2396100 0.7 101257
05:00+16з369842 2.0 1011239
08:00+16зсз598347 0.0 1011504
11:00+18зсз687171 0.0 1011914
14:00+20зсз786297 0.7 10101539
17:00+18сз7107227 1.6 10101090
20:00+16сз51177100 0.0 1011609